DECAYED
Showing default

TIANZHOU-9, 64786 (Decayed)

Orbit data source: Space-Track

TIANZHOU-9, 64786 was a payload satellite owned by ZZHGB (CN) in LEO that was launched on Mon, 14 Jul 2025 UTC via a CHANG ZHENG 7 launch vehicle from the Wenchang Satellite Launch Center (WSC). Payload-class satellites include a variety of spacecraft equipped with specific instruments for various scientific and technological missions. These include communications satellites like Starlink; space stations such as the ISS; scientific satellites like the Hubble; Earth observation satellites from companies like Planet Labs, Umbra, and HawkEye 360; GPS; miniature CubeSats for education and research; and military/defense satellites.

Loading next visibility...
Identifier
64786, 2025-149A
Orbit
Decayed
Country
Flag of CNCN / PRC
Related business
Manufacturer
CAST
Mission
Decayed Civil Spaceship
Bus & Motor
TIANZHOU, Unknown motor
Mass
13,200 kg wet, 6,000 kg dry
Launch date (UTC)
2025-07-14 (11 months ago)
Launch vehicle
CHANG ZHENG 7
Launch site
Wenchang Satellite Launch Center (WSC)
Object type
Payload
Rocket body
Debris
Shape & HBR
Step Cyl + 2 Pan, 14.5 m
Radar Cross Section
25.688 m², Large (>1 m²)

Expand to show TLE details & history
Last TLE update: 1 month ago

TLE from 1 month ago
0 TIANZHOU-9
1 64786U 25149A   26127.53402356  .00004852  00000-0  54733-4 0  9993
2 64786  41.4575 209.3432 0009635 313.6562  46.3478 15.63402594286693
Epoch: 2026-05-07T12:48Z
TLE epoch observation values (Epoch: 2026-05-07T12:48:59.635Z)
Latitude
-0.00004°
Longitude
151.71589°
Altitude
372.945 km
Speed
7.69 km/s
True Right ascension
13h 57m 22s
True Declination
0° 00' 00"
Sunlit
Object was in full shadow at epoch
Visualization orbit readout
Latitude
Unknown
Longitude
Unknown
Altitude
Unknown
Speed
Unknown
Apparent Right ascension
Unknown
Apparent Declination
Unknown
Sunlit
N/A
Visualization observer readout
Local Sidereal Time
07:18:49
Azimuth
Unknown
Elevation
Unknown
Doppler factor
Unknown
Orbital elements
Apogee altitude
386.586 km
Perigee altitude
373.563 km
Semi-major axis
6,758.211 km
Eccentricity
0.00096
Inclination
41.4575°
RAAN
209.3432°
Arg. of periapsis
313.6562°
True anomaly
46.42775°
Mean anomaly
46.3478°
Eccentric anomaly
46.38777°
Mean motion
3.90657 °/min
Orbital period
92.15 mins
BSTAR
0.000054733
Loading maneuver chart data...
Computing Atmospheric mass density...
Loading historical data...
Loading historical data...
Loading historical data...
Loading historical data...
Loading historical data...
Loading historical data...
Loading historical data...
Other satellites on launch #149 in the year 2025 (2025-07-14 UTC)

Documentation

Showing up to 5 results
|